Location: Lake Lucerne
(45.5315°N, 88.8489°W)
Time: 23:21:23
(UTC-05:00)

ARIANE 6 FM1 Upper Stage - Pass Details

Date: 19 September 2024
Orbit: 563 x 595 km, 62.0° (Epoch: 14 October)

Event Time Altitude Azimuth Distance (km) Brightness Sun altitude
Rises 21:14:13 0° 220° (SW) 2,768 6.3 -23.8°
Reaches altitude 10° 21:16:26 10° 221° (SW) 1,879 5.5 -24.1°
Enters shadow 21:19:27 46° 224° (SW) 782 3.4 -24.6°
